SSC

Satellite information

Favourite Embed

Satellite Type and Status

PAYLOADIN ORBIT

Key statistics

Satellite SSC at a glance.

Uptime

15427

Days in orbit

Revolutions

≈ 13.8

Per day

Orbit

LEO

Low Earth Orbit

Inclination

63.3

Latest

Satellite identification and parameters

Extended collection of information and parameters for SSC.

Object identification

Identified? True

Debris? False

Object name: SSC

International designator: 1983-008H

Object number (NORAD): 13874

Object ID (CCSDS): 13874

Country: UNITED STATES OF AMERICA (US)

Current information (Y/N): Y

RCS size: LARGE

Orbital parameters

Period: 104.532 minutes

Inclination: 63.3032 deg

SMA: 7350.671 km

Apoapsis: 1524.737 km

Periapsis: 420.334 km

RAAN: 49.5405 deg

Eccentricy: 0.0751226

Argument of periapsis: 129.1047 deg

Mean anomaly: 237.9295 deg

Mean motion: 13.77565699 rev/day

Mean motion (dot): 0.00004714 rev/day2

B* drag term: 0.00051737 1/REarth

Two-line elements (TLE)

Creation date: May 5, 2025, 2:11 a.m.

Reference frame: TEME

Reference center: EARTH

Epoch: May 4, 2025, 8:59 p.m. UTC

TLE line 0: 0 SSC

TLE line 1: 1 13874U 83008H 25124.87481246 .00004714 00000-0 51737-3 0 9998

TLE line 2: 2 13874 63.3032 49.5405 0751226 129.1047 237.9295 13.77565699295322

Live tracking on map

Real-time ground track for satellite SSC.

In-orbit conjunctions

A list of the most updated potential collisions computed for object SSC.

Target Orbit TCA Probability of collision Miss distance Type
FENGYUN 1C DEB SSO 2024-09-17 04:22:28 0.0001012015 451.0 (m) DEBRIS

Associated space launch

The Parcae satellites were passive ELINT satellites. MSD satellites were dispensers of triplets of ocean surveillance satellites.

SSC was lifted into orbit during the mission ‘Atlas H | Parcae 5A,B,C & MSD 5’, on board a Atlas H space rocket.

The launch took place on Feb. 9, 1983, 1:47 p.m. from Space Launch Complex 3E.

For more information about the launch, click the button.

Launch to space Atlas H | Parcae 5A,B,C & MSD 5
Atlas H | Parcae 5A,B,C & MSD 5

Agency: N/A

Status: Launch Successful

Launch date: Feb. 9, 1983, 1:47 p.m. UTC

Rocket: Atlas H

Launch pad: Space Launch Complex 3E

Location: Vandenberg SFB, CA, USA

...

Latest news about this satellite

There are no fresh news available about this satellite. Check back as we update our databases every day.


Newsletter sign-up

Weekly statistics, charts and insights to help you stay on top of the space industry.